Weather Roundup
Issued by NWS

Home | Current Version | Previous Version | Graphics & Text | Print | Product List | Glossary Off
Versions: 1 2 3 4 5 6 7 8 9 10 11 12 13 14 15 16 17 18 19 20 21 22 23 24 25 26 27 28 29 30 31 32 33 34 35 36 37 38 39 40 41 42 43 44 45 46 47 48 49 50

000
NZUS93 KARX 280659
HRRWXR

CURRENT HOURLY OBSERVATIONS ACROSS
MUCH OF THE UPPER MISSISSIPPI VALLEY
NATIONAL WEATHER SERVICE LA CROSSE WI
200 AM CDT SUN AUG 28 2016


...SOUTHEAST MINNESOTA...


CITY           SKY/WX    TMP DP  RH WIND       PRES   REMARKS
ROCHESTER      FOG       61  61 100 S5        30.12S VSB 1/4
ROCHESTER/MAYO FAIR      65  65 100 SE6       30.11S
WINONA         CLEAR     63  63 100 CALM      30.11S
AUSTIN         FOG       61  61 100 CALM      30.12R VSB 3/4
ALBERT LEA     PTCLDY    61  61 100 CALM      30.11R FOG
DODGE CENTER   CLEAR     61  59  94 SE6       30.12S FOG
PRESTON          N/A     63  62  95 S6        30.13S FOG
OWATONNA       PTCLDY    64  63  94 SE3       30.10S
FARIBAULT      FOG       55  55 100 CALM      30.10S VSB 1/2
$$

...ELSEWHERE IN MINNESOTA...


CITY           SKY/WX    TMP DP  RH WIND       PRES   REMARKS
MINNEAPOLIS    CLEAR     64  61  90 CALM      30.09S
INTNL FALLS    CLEAR     52  51  97 CALM      30.04S
DULUTH         MOCLDY    57  56  96 W5        30.09R
RED WING       FOG       61  61 100 CALM      30.09S VSB 1/4
REDWOOD FALLS  CLEAR     62  60  93 S7        30.06S
MANKATO        CLEAR     63  59  88 SE6       30.09S
WORTHINGTON    CLEAR     59  59 100 SE5       30.09S FOG
FAIRMONT       FOG       58  58 100 CALM      30.09S VSB 1/2
$$

...SOUTHWEST WISCONSIN...


CITY           SKY/WX    TMP DP  RH WIND       PRES   REMARKS
LA CROSSE      CLOUDY    68  68 100 S6        30.11R FOG
PRAIRIE DU CHI FOG       64  63  96 CALM      30.12R VSB 1/2
BOSCOBEL       FOG       65  64  97 CALM      30.12S VSB 1/4
LONE ROCK      NOT AVBL
PLATTEVILLE    CLEAR     66  66 100 SE5       30.12F
FORT MC COY    CLOUDY    64  64 100 CALM      30.12S FOG
CAMP DOUGLAS   CLOUDY    66  66 100 SW5       30.11S
MAUSTON-NEW LI CLOUDY    66  66  99 CALM      30.11S FOG
VIROQUA        CLOUDY    62  62 100 CALM      30.13S VSB 1/4
WIS DELLS      NOT AVBL
$$

...ELSEWHERE IN WISCONSIN...


CITY           SKY/WX    TMP DP  RH WIND       PRES   REMARKS
MILWAUKEE      MOCLDY    66  64  93 CALM      30.10S
MADISON        FOG       62  62 100 CALM      30.11R VSB 1/4
GREEN BAY      FOG       62  62 100 W3        30.09R VSB 1/4
EAU CLAIRE     NOT AVBL
BLACK RVR FLS  FOG       65  65 100 CALM      30.11S VSB 1/4
MEDFORD        CLOUDY    62  62 100 W3        30.11R FOG
WAUSAU         CLOUDY    64  62  93 SW5       30.09S
WIS RAPIDS     CLOUDY    65  65 100 W8        30.12R FOG
MARSHFIELD     CLOUDY    65  62  90 W7        30.11R FOG
RICE LAKE      FOG       58  56  96 CALM      30.12R VSB<1/4
$$

...NORTHEAST IOWA...


CITY           SKY/WX    TMP DP  RH WIND       PRES   REMARKS
WATERLOO       MOCLDY    63  61  93 CALM      30.10S
DUBUQUE        PTCLDY    64  64 100 CALM      30.13S FOG
DECORAH        FOG       63  63 100 CALM      30.12R VSB 1/4
MASON CITY     FOG       58  58 100 S5        30.12S VSB 1/4
CHARLES CITY   CLOUDY    63  63 100 SE5       30.11F FOG
OELWEIN        CLEAR     63  63 100 SE3       30.13R FOG
$$

...ELSEWHERE IN IOWA...


CITY           SKY/WX    TMP DP  RH WIND       PRES   REMARKS
DES MOINES     CLEAR     72  68  87 SE7       30.09S
IOWA CITY      PTCLDY    70  68  93 NE3       30.12S
FORT DODGE     CLEAR     66  63  88 CALM      30.10S
MARSHALLTOWN   CLEAR     62  62 100 SE5       30.10S
CEDAR RAPIDS   CLEAR     67  67 100 E5        30.11S
$$

...NORTHERN ILLINOIS...


CITY           SKY/WX    TMP DP  RH WIND       PRES   REMARKS
CHICAGO-OHARE  MOCLDY    73  70  90 SW3       30.11R
CHICAGO-MIDWAY CLOUDY    77  71  82 CALM      30.10S
MOLINE         PTCLDY    70  68  93 CALM      30.09S
ROCKFORD       CLOUDY    69  67  93 CALM      30.12R
PEORIA         PTCLDY    73  73 100 SW5       30.10F
$$

NOTE: "FAIR" INDICATES FEW OR NO CLOUDS BELOW 12,000 FEET WITH NO
SIGNIFICANT WEATHER AND/OR OBSTRUCTIONS TO VISIBILITY. WIND
SPEEDS ARE IN MILES-PER-HOUR.




USA.gov is the U.S. government's official web portal to all federal, state and local government web resources and services.